Location: Rumah Sambob
(2.9167°N, 113.9167°E)
Time: 12:27:04
(UTC+00:00)

Meteor 1-31 Rocket - Pass Details

Date: 06 June 2020
Orbit: 521 x 546 km, 97.6° (Epoch: 05 July)

Event Time Altitude Azimuth Distance (km) Brightness Sun altitude
Rises 20:34:53 0° 16° (NNE) 2,657 6.9 -23.6°
Reaches altitude 10° 20:36:59 10° 19° (NNE) 1,774 6.0 -23.1°
Maximum altitude 20:40:47 64° 101° (E) 592 3.0 -22.2°
Enters shadow 20:41:54 42° 165° (SSE) 770 3.4 -22.0°
